Home   Weather   Halifax   Past weeks
Flag for Canada

Past Weather in Halifax, Nova Scotia, Canada — Yesterday and Last 2 Weeks

Now
72 °F

Partly sunny.


Feels Like: 71 °F
Forecast: 78 / 67 °F
Wind: 10 mph from Southwest

Location: Halifax International Airport

Current Time: Jul 21, 2019 at 6:49:21 am

Latest Report: Jul 21, 2019 at 6:00 am


Visibility: 15 mi

Pressure: 29.65 "Hg

Humidity: 83%

Dew Point: 66 °F

Location of HalifaxLocation

Past Weather in Halifax — Graph

°F

Halifax Temperature Yesterday

Maximum temperature yesterday: 90 °F (at 4:00 pm)
Minimum temperature yesterday: 61 °F (at 12:00 am)
Average temperature yesterday: 75 °F

High & Low Weather Summary for the Past Weeks

 TemperatureHumidityPressure
High90 °F (Jul 20, 4:00 pm)100% (Jul 6, 11:00 pm)30.13 "Hg (Jul 6, 11:00 pm)
Low50 °F (Jul 11, 3:00 am)28% (Jul 8, 5:00 pm)29.63 "Hg (Jul 20, 5:00 pm)
Average67 °F75%29.86 "Hg
* Reported Jul 6 5:00 am — Jul 21 5:00 am, Halifax. Weather by CustomWeather, © 2019

Note: Actual official high and low records may vary slightly from our data, if they occured in-between our weather recording intervals... More about our weather records

Advertising

Halifax Weather History for the Previous 24 Hours

Scroll right to see more
 ConditionsComfort  
Time TempWeatherWind HumidityBarometerVisibility
5:00 am
Sun, Jul 21
70 °FClear.9 mph88%29.65 "Hg15 mi
4:00 am72 °FClear.7 mph83%29.65 "Hg15 mi
3:00 am73 °FClear.8 mph74%29.66 "Hg15 mi
2:00 am75 °FClear.9 mph74%29.66 "Hg15 mi
1:00 am75 °FPassing clouds.9 mph69%29.67 "Hg15 mi
12:00 am75 °FPassing clouds.7 mph65%29.68 "Hg15 mi
11:00 pm
Sat, Jul 20
77 °FPassing clouds.9 mph61%29.69 "Hg15 mi
10:00 pm79 °FPassing clouds.8 mph58%29.68 "Hg15 mi
9:00 pm81 °FPassing clouds.12 mph62%29.67 "Hg15 mi
8:00 pm82 °FPartly sunny.9 mph62%29.65 "Hg15 mi
7:00 pm86 °FScattered clouds.13 mph52%29.63 "Hg15 mi
6:00 pm86 °FScattered clouds.12 mph59%29.63 "Hg15 mi
5:00 pm88 °FPartly sunny.10 mph52%29.63 "Hg15 mi
4:00 pm90 °FPartly sunny.9 mph52%29.64 "Hg15 mi
3:00 pm88 °FBroken clouds.9 mph55%29.65 "Hg15 mi
2:00 pm88 °FBroken clouds.9 mph55%29.65 "Hg15 mi
1:00 pm86 °FPartly sunny.13 mph55%29.66 "Hg15 mi
12:00 pm84 °FPartly sunny.5 mph58%29.67 "Hg15 mi
11:00 am81 °FScattered clouds.8 mph66%29.68 "Hg15 mi
10:00 am75 °FPassing clouds.7 mph74%29.68 "Hg15 mi
9:00 am72 °FPassing clouds.6 mph78%29.68 "Hg15 mi
8:00 am68 °FPassing clouds.2 mph83%29.66 "Hg15 mi
7:00 am64 °FPassing clouds.3 mph83%29.66 "Hg15 mi
6:00 am61 °FPassing clouds.10 mph94%29.66 "Hg15 mi
Weather by CustomWeather, © 2019

See weather overview